Theta_e
320 316 315 311 299 296 291 296 298 300 300 307 311 312 312 313 311 302 325 336 339 341 345 346 348 349 349 348 348 348 348 347 347 347 346 346 346 346 346 346 346 346 345 345 343 344 345 347 347
316 317 312 305 295 289 290 296 299 302 306 313 314 313 312 306 317 320 329 339 340 342 343 344 344 348 348 347 347 346 346 345 346 346 346 345 345 345 346 345 345 344 344 343 343 342 343 346 346
314 315 306 301 295 290 290 296 299 306 310 309 309 312 310 304 312 324 335 339 341 341 342 342 343 347 347 347 346 345 344 343 343 343 343 343 344 344 344 344 344 344 344 343 342 343 343 345 346
309 308 305 297 293 295 297 299 300 303 305 306 307 301 300 305 312 331 338 337 335 335 340 341 344 346 345 345 344 344 343 343 342 342 341 341 341 342 343 343 343 342 343 342 343 342 344 347 345
306 304 296 293 294 296 298 302 301 303 303 305 309 302 299 311 331 332 331 329 326 328 335 338 339 342 343 343 343 343 342 342 342 341 341 340 340 340 340 341 341 341 341 341 341 341 344 345 344
302 302 292 291 293 296 299 301 302 305 305 305 303 297 298 311 327 327 326 321 320 319 321 330 330 335 338 339 338 338 338 337 337 338 339 340 340 340 341 341 341 341 341 340 341 343 343 343 343
300 295 292 291 293 295 299 304 303 305 306 305 307 296 296 303 316 317 314 313 315 315 315 315 318 324 329 331 331 329 328 325 324 325 327 327 329 331 333 334 336 339 340 340 340 342 342 342 343
302 298 294 292 292 294 300 303 305 304 303 304 305 295 294 300 308 309 307 307 307 308 311 312 311 311 312 314 321 322 324 323 322 321 321 319 319 320 320 322 326 330 334 337 339 338 339 340 340
304 294 292 294 295 296 300 299 300 298 300 300 297 299 300 301 302 300 300 300 302 305 305 305 307 309 310 312 314 318 320 320 317 315 317 313 311 312 314 318 320 321 320 323 331 335 337 335 332
298 293 295 298 297 296 298 298 297 297 296 293 293 296 298 299 298 298 298 298 299 300 302 303 302 304 307 311 308 308 310 309 309 308 308 309 308 309 312 311 316 316 317 318 319 321 330 329 330
299 295 299 299 296 295 295 294 293 294 293 295 293 295 296 296 296 297 296 298 298 300 302 302 302 303 304 305 304 305 304 304 306 305 305 307 306 305 306 306 307 307 311 309 311 310 316 323 327
294 299 300 299 297 295 293 292 291 293 295 295 296 298 296 295 296 296 295 295 297 299 301 302 303 303 302 302 302 302 303 302 303 303 305 304 303 303 303 303 304 305 306 307 308 308 309 310 317
294 297 299 298 295 293 293 291 291 290 293 293 294 295 294 294 294 294 294 295 297 298 300 301 302 302 302 302 300 300 300 300 301 301 302 302 300 299 300 300 301 301 303 304 305 307 308 309 309
293 296 298 294 293 292 291 290 289 290 292 292 292 293 292 292 292 291 292 294 296 298 299 301 301 301 301 299 299 298 298 299 299 299 299 300 300 298 298 298 299 299 300 301 302 304 305 307 308
292 289 288 291 291 290 290 289 285 290 290 290 290 289 291 291 291 292 293 294 295 298 300 300 299 299 298 298 297 297 297 298 297 297 298 298 299 298 297 296 296 297 299 299 300 300 302 304 306
287 286 283 289 289 288 290 287 288 286 288 288 287 287 288 290 290 291 292 293 293 297 299 299 301 298 297 296 296 296 296 295 295 295 296 296 297 297 295 295 295 296 297 297 297 297 298 300 302
283 279 280 284 288 286 285 283 285 286 285 287 285 286 286 287 288 289 291 291 294 297 296 296 297 297 296 295 295 294 294 294 293 292 293 294 296 296 294 294 294 295 294 294 295 295 295 296 297
279 279 281 280 284 283 282 282 285 286 284 285 285 284 285 287 288 289 291 293 295 295 295 295 296 295 295 294 292 292 291 291 291 291 292 294 294 294 293 293 293 294 293 293 294 293 294 294 295
283 279 278 281 284 283 282 283 285 286 284 284 283 284 284 286 289 291 292 293 293 293 293 294 293 293 292 290 289 288 287 289 289 290 292 292 293 294 292 292 292 292 292 292 292 292 292 292 294
283 280 280 283 283 282 280 280 283 284 285 286 286 285 285 286 289 291 291 292 293 292 292 292 293 292 291 290 289 288 287 288 288 290 290 291 291 292 292 291 290 291 290 290 290 291 290 291 293
282 281 280 281 282 281 279 278 282 285 285 285 286 287 287 288 290 291 291 291 290 290 291 292 292 291 290 290 289 288 287 287 287 287 288 289 290 291 290 290 290 290 290 289 290 290 289 288 290
279 284 284 282 279 274 279 273 281 283 286 285 285 284 286 287 292 292 292 290 290 290 291 291 291 290 290 289 288 286 284 283 285 285 287 287 289 289 289 289 289 289 289 289 291 292 291 291 289
281 284 282 281 277 277 276 273 278 282 283 286 285 284 284 287 292 291 291 292 290 290 290 290 289 289 288 288 287 285 284 285 285 285 285 285 287 287 288 288 288 288 289 290 290 290 290 291 289
285 283 283 281 278 265 275 275 276 281 285 285 284 285 285 287 291 292 292 290 290 289 289 289 288 288 288 287 286 285 284 284 283 283 283 284 285 285 286 287 287 287 288 288 289 289 289 289 290
283 280 271 267 264 267 277 274 277 283 286 286 286 285 285 288 289 289 289 289 289 289 288 288 288 287 287 286 286 285 285 284 283 283 282 282 283 284 284 285 285 286 288 288 288 288 288 288 288
281 280 272 264 265 271 276 273 280 285 286 287 287 286 286 287 290 290 290 289 289 289 288 288 287 286 286 286 285 285 285 284 283 283 283 282 282 283 284 286 286 286 287 287 287 287 287 288 288
280 278 282 272 266 267 275 278 283 283 284 285 285 285 286 287 288 288 289 289 290 289 288 287 286 286 286 285 285 285 284 284 283 283 283 282 283 285 285 286 285 286 286 286 286 286 286 287 287
282 283 276 272 265 264 272 275 278 281 283 284 285 285 286 287 287 288 289 288 289 289 287 286 286 285 285 285 285 285 284 284 283 283 281 281 283 285 285 285 285 285 285 285 286 285 286 286 286
278 278 279 279 275 267 266 275 282 284 284 284 284 285 287 288 289 288 288 287 288 287 286 285 285 284 284 285 284 283 283 283 282 282 281 281 283 284 284 284 284 284 284 285 285 285 285 285 286
282 279 279 277 272 272 271 275 283 282 284 286 285 285 286 288 289 288 286 286 286 286 285 284 284 284 284 284 283 284 283 282 281 280 280 281 281 282 284 284 284 284 285 285 285 284 285 284 284
Wind_Speed
4 3 1 4 4 4 4 8 3 9 2 2 2 6 10 4 2 5 2 2 10 8 9 7 10 10 11 10 9 8 8 8 8 7 7 7 7 7 7 7 7 6 6 5 3 4 6 6 7
2 1 4 2 4 2 6 6 9 10 7 8 7 5 6 3 3 5 3 5 12 9 6 6 9 9 10 9 8 7 7 8 8 7 7 6 5 5 5 4 4 3 3 2 2 1 2 6 9
2 1 3 4 4 6 6 5 5 3 3 5 5 6 4 5 3 4 5 10 8 8 7 6 9 9 9 8 8 7 6 6 6 5 5 4 4 3 2 1 1 1 2 2 3 2 2 4 6
2 3 4 3 7 7 7 6 2 3 3 2 5 7 2 2 6 7 9 11 9 7 6 8 10 10 10 8 7 6 5 5 4 3 2 2 1 1 1 1 1 2 4 4 5 6 6 5 6
2 3 2 4 6 7 6 9 4 7 3 3 3 6 2 2 8 11 9 9 11 6 7 8 10 10 10 10 10 9 8 8 7 5 2 0 1 1 2 3 4 4 5 6 7 8 7 6 8
2 3 2 8 6 6 6 9 7 6 3 4 7 5 4 4 6 7 9 7 8 8 5 6 8 9 9 10 10 9 9 9 8 8 8 6 6 6 5 5 6 6 7 7 8 9 8 8 8
5 4 5 4 5 5 7 7 10 7 6 3 11 5 1 3 7 9 9 8 7 7 6 5 6 8 10 10 9 10 11 12 11 11 12 12 11 10 10 10 8 8 9 9 9 10 9 10 10
4 3 3 5 6 8 5 3 2 6 4 5 4 7 6 6 8 9 8 8 8 6 6 6 6 6 6 5 10 10 11 11 12 11 10 9 9 9 10 9 9 10 10 11 10 11 11 11 11
4 2 6 5 5 7 4 3 3 2 5 4 3 6 4 10 9 8 6 4 5 4 6 6 6 6 6 6 5 7 8 9 8 8 9 6 4 5 5 6 9 10 12 13 13 13 12 10 8
5 5 8 6 4 4 3 2 1 3 2 3 3 4 6 11 9 11 9 8 6 6 4 6 7 6 5 4 5 4 4 3 3 4 5 4 5 5 6 6 9 10 11 12 13 15 14 9 5
5 8 5 3 2 2 3 2 5 4 4 6 9 9 8 6 8 10 8 9 9 7 4 6 7 6 6 5 3 2 2 2 3 5 6 5 4 4 4 4 4 4 6 4 6 6 4 7 7
4 7 4 4 4 2 2 2 5 3 5 3 10 16 11 10 9 10 9 8 8 7 7 7 7 6 5 3 3 2 2 2 3 4 6 4 3 5 5 4 5 5 4 6 5 4 6 6 6
5 4 4 3 6 4 1 6 6 6 7 3 4 7 9 9 8 6 8 8 9 8 7 7 7 7 5 5 2 2 2 3 3 4 5 4 3 3 4 4 4 4 4 4 5 5 6 7 7
2 4 11 6 6 4 5 5 4 6 8 7 6 12 10 10 10 5 7 8 8 8 8 7 7 6 6 4 3 2 3 3 3 3 3 5 3 3 3 4 4 4 4 4 5 6 6 7 7
2 3 3 5 7 6 5 10 11 10 6 9 11 9 9 11 9 10 10 10 10 7 8 8 8 7 7 5 3 2 2 3 3 3 4 4 4 4 4 3 4 4 4 6 5 6 5 6 6
1 1 4 4 9 5 5 22 6 4 10 12 11 10 9 9 9 9 9 9 8 9 9 8 7 7 6 5 3 1 3 3 3 3 4 5 5 5 4 4 4 4 4 4 4 4 5 5 5
2 5 6 6 9 5 6 9 5 4 8 11 9 10 9 8 8 7 9 9 9 10 10 8 7 7 6 4 3 2 4 3 3 4 4 6 5 5 4 4 4 4 3 4 5 6 4 6 6
6 4 4 6 5 5 7 15 11 7 2 9 9 9 9 9 11 9 8 8 9 9 8 8 6 7 5 4 2 3 2 2 4 4 4 6 5 6 5 4 5 4 3 3 3 5 5 5 7
3 3 2 3 1 4 9 10 15 9 6 10 10 10 10 12 8 8 8 9 9 7 8 8 8 5 3 2 2 3 2 3 2 4 5 5 5 5 5 4 4 4 4 5 5 6 7 5 4
8 4 9 5 1 4 5 15 15 9 11 14 18 14 13 7 8 8 9 9 10 9 8 8 7 6 4 3 2 2 1 2 3 2 4 5 5 6 6 5 5 5 4 5 4 4 6 4 3
7 8 4 6 0 3 3 11 7 7 11 7 11 12 13 18 16 13 13 12 9 9 9 8 7 7 5 5 3 3 2 2 3 3 3 3 5 5 5 5 5 5 5 4 4 5 6 6 4
5 7 7 6 4 5 2 8 6 4 8 7 9 11 14 15 14 15 15 11 12 9 8 8 7 7 5 5 4 3 2 2 3 3 3 4 6 6 5 5 5 5 4 7 6 7 7 7 8
6 2 5 3 3 3 2 2 9 2 8 14 10 11 10 15 19 18 16 15 8 10 9 8 7 6 5 6 5 3 3 3 2 3 5 6 5 6 5 5 5 6 6 6 8 8 8 6 7
5 5 6 5 3 2 9 9 9 6 10 5 3 9 11 11 15 15 11 9 8 7 8 7 8 6 6 5 4 4 4 4 3 3 4 4 4 4 5 6 5 5 6 7 7 8 9 8 8
2 5 2 5 3 8 2 3 11 8 7 5 8 9 9 11 14 14 14 12 11 11 9 8 8 7 6 5 4 4 3 3 4 5 4 6 5 4 5 5 5 5 7 8 8 8 8 9 9
6 6 7 9 5 5 1 9 10 5 6 9 5 7 8 11 14 16 15 13 13 12 9 9 8 7 7 6 4 3 3 3 3 4 4 4 4 5 6 6 7 8 9 8 8 7 7 9 8
6 5 4 5 1 4 4 8 11 7 5 2 7 8 9 11 13 14 12 13 13 12 11 10 9 7 7 6 4 4 3 3 3 5 4 3 4 6 8 8 8 8 9 9 9 7 9 10 10
3 2 3 3 2 5 6 6 7 5 8 5 7 10 9 8 9 10 13 13 10 9 8 8 8 8 7 6 4 3 2 2 3 3 4 5 5 6 7 8 8 8 9 9 9 8 9 10 9
3 2 1 1 5 6 2 8 8 10 8 11 9 9 12 12 13 13 11 8 9 7 7 8 8 8 6 6 4 4 3 1 2 3 4 4 5 6 7 8 8 9 9 9 9 10 11 12 12
4 7 8 7 7 4 3 10 1 3 5 9 13 11 8 9 11 9 9 9 9 9 8 8 7 7 7 6 5 4 2 0 2 4 5 5 5 6 6 8 9 9 9 10 10 11 10 11 12
Wind_Direction
323 323 69 41 68 71 247 255 275 296 291 241 133 130 117 54 54 160 266 129 130 144 143 139 139 141 131 125 118 115 112 113 124 115 114 113 110 105 97 86 82 78 76 82 110 163 185 208 199
334 27 41 92 105 151 263 252 267 263 218 133 104 101 48 92 85 123 88 75 122 133 121 130 134 133 133 131 128 122 117 117 114 117 117 112 108 110 105 107 102 87 74 52 74 30 226 194 193
297 158 101 147 183 192 217 241 250 246 213 204 93 56 89 129 104 122 122 98 90 94 98 114 124 128 133 132 131 131 127 119 116 119 119 120 119 117 110 105 87 61 345 322 298 276 241 241 231
122 18 20 155 221 249 212 250 130 217 278 42 115 73 34 251 142 144 127 103 97 77 92 109 109 114 119 119 132 139 136 125 121 127 136 135 122 177 206 237 280 300 289 275 271 276 287 248 240
36 66 194 232 239 253 239 251 260 244 225 157 117 158 103 22 125 124 121 121 118 99 114 122 125 120 116 108 100 94 91 85 76 68 42 334 222 252 251 250 241 247 255 265 270 271 270 279 269
104 120 165 227 246 251 268 230 248 230 185 147 82 107 184 143 121 122 119 121 108 116 98 89 86 103 106 107 104 105 102 94 84 66 52 45 33 16 359 331 312 297 280 268 267 263 254 255 256
158 128 212 218 243 284 252 293 196 193 159 159 139 102 163 169 151 129 120 115 112 112 107 101 93 90 86 89 90 89 87 80 73 67 57 52 44 38 29 22 1 329 307 298 297 287 256 250 253
155 126 228 224 234 269 266 267 279 145 195 120 119 155 192 203 157 125 118 119 121 126 126 122 104 95 91 85 89 85 81 78 74 72 68 64 52 42 29 20 6 5 349 324 300 302 303 269 256
147 174 222 210 196 251 270 269 338 336 118 76 5 155 201 137 135 114 115 104 117 122 129 127 121 112 108 102 88 77 79 75 65 52 45 46 39 29 25 8 4 358 351 345 333 312 294 296 301
169 202 208 202 207 252 283 191 201 128 105 46 48 34 109 135 153 148 158 158 154 151 150 130 121 130 126 102 98 90 78 68 70 57 36 22 17 3 359 354 349 349 339 337 334 331 325 298 272
204 232 195 245 193 262 316 340 326 154 205 198 177 160 150 156 167 165 173 169 174 163 151 146 129 126 121 116 109 82 70 50 36 29 18 10 7 357 351 344 341 337 333 327 325 325 319 314 304
226 207 197 209 207 206 254 320 306 234 234 171 179 170 164 171 185 184 177 173 156 164 162 157 137 123 110 102 93 96 66 47 39 16 26 21 7 353 347 341 331 332 334 322 314 306 298 290 293
248 245 193 211 180 201 177 240 228 251 255 299 132 170 193 182 184 192 178 167 158 160 168 166 142 130 127 115 105 78 59 52 31 26 17 25 4 344 331 325 328 327 327 318 315 307 306 299 291
252 219 251 190 206 226 201 244 182 240 247 213 185 193 191 189 190 159 165 161 168 158 168 159 140 134 123 107 93 66 43 33 32 18 359 352 353 338 330 327 326 326 329 321 312 308 303 295 291
200 229 299 225 190 215 175 280 233 217 191 217 197 204 195 202 188 186 178 170 165 171 152 151 139 129 118 111 88 55 11 30 16 345 348 350 351 345 337 318 312 313 319 314 314 315 310 299 294
204 113 220 246 164 206 137 260 274 241 199 227 204 201 203 215 205 191 182 170 164 144 151 151 135 132 123 120 99 30 23 18 6 5 1 353 349 352 339 325 316 311 312 308 309 305 304 302 293
300 228 222 303 203 142 186 268 260 354 200 219 202 202 208 222 230 207 192 176 161 153 145 137 136 135 131 114 92 56 32 31 15 356 351 343 338 331 325 308 299 305 300 302 308 310 292 301 297
201 214 237 225 214 169 213 254 268 272 259 232 216 208 210 210 215 193 180 158 143 140 139 135 132 131 118 97 67 57 44 32 5 350 330 336 332 326 322 305 303 303 295 295 299 307 302 287 286
147 197 239 256 227 182 235 262 257 262 252 240 240 222 212 210 204 172 160 142 128 135 142 143 134 140 114 74 64 39 13 343 337 333 340 346 333 328 317 299 305 301 296 294 292 301 297 297 292
261 258 269 269 243 183 295 268 261 232 239 222 220 216 210 181 169 167 153 146 153 152 151 145 138 135 117 118 120 107 82 299 273 311 321 322 330 320 317 313 298 288 286 287 284 284 298 290 285
234 230 222 224 318 250 320 283 243 253 234 232 220 208 194 188 176 170 166 164 152 156 161 150 149 142 139 133 105 63 22 348 332 320 301 307 310 305 303 306 312 308 289 270 267 274 279 287 284
250 211 200 198 146 227 137 277 287 261 268 229 220 199 193 184 181 171 169 166 170 171 152 142 145 143 137 121 96 115 183 245 243 271 285 302 299 296 301 303 303 300 305 309 308 299 298 312 305
233 145 178 174 165 56 202 52 270 305 278 256 215 206 192 183 171 174 176 175 168 151 151 147 144 135 136 126 128 154 219 242 275 307 310 303 300 298 297 296 304 317 309 305 309 305 296 285 283
148 74 46 44 69 340 212 167 274 212 218 264 246 190 183 171 172 173 170 149 149 144 142 148 147 151 149 137 149 184 224 273 303 300 293 281 281 287 290 293 297 293 299 298 297 295 289 288 281
99 101 339 345 357 223 87 184 249 253 247 230 241 199 177 167 164 163 160 161 160 163 161 156 156 164 163 154 173 199 236 260 273 285 285 311 309 301 288 295 292 296 297 294 292 290 287 285 277
185 165 166 207 207 245 342 235 243 252 262 249 240 170 149 165 172 172 172 167 168 170 166 161 164 164 169 163 185 205 237 236 264 281 302 289 291 305 302 313 318 306 302 295 287 282 278 275 273
190 189 177 98 100 45 229 279 294 249 261 207 163 149 170 171 171 171 169 172 173 173 173 166 164 170 168 174 177 206 227 268 286 297 290 297 297 310 322 303 301 297 295 293 287 278 275 272 272
197 282 104 8 222 257 274 276 237 262 231 202 180 180 177 171 162 169 178 178 180 173 160 156 165 170 171 172 181 198 224 262 285 308 328 314 289 310 306 302 302 300 295 291 285 280 275 273 271
140 250 41 197 168 188 238 254 219 234 195 200 206 197 181 183 184 182 184 179 172 154 156 160 164 162 168 174 182 191 208 265 310 340 324 298 296 304 303 306 303 300 295 289 281 276 276 273 273
171 203 180 185 236 229 172 259 301 292 265 205 202 196 194 190 190 180 172 164 167 168 165 169 169 170 177 175 177 186 155 351 350 333 307 302 297 297 299 300 301 299 301 297 288 283 281 278 276